Time,TemperatureF,DewpointF,PressureIn,WindDirection,WindDirectionDegrees,WindSpeedMPH,WindSpeedGustMPH,Humidity,HourlyPrecipIn,Conditions,Clouds,dailyrainin,SoftwareType,DateUTC
2013-09-25 07:34:00,43.8,40.0,29.98,South,173,0.0,-999.0,85,-99.99,,,0.00,weatherlink.com 1.10,2013-09-25 11:34:00,
2013-09-25 07:36:00,43.8,40.0,29.98,South,173,0.0,-999.0,85,-99.99,,,0.00,weatherlink.com 1.10,2013-09-25 11:36:00,
2013-09-25 07:51:00,43.8,40.0,29.97,South,173,0.0,-999.0,85,-99.99,,,0.00,weatherlink.com 1.10,2013-09-25 11:51:00,
2013-09-25 08:06:00,44.1,40.0,29.97,South,173,0.0,-999.0,85,-99.99,,,0.00,weatherlink.com 1.10,2013-09-25 12:06:00,
2013-09-25 08:22:00,44.8,41.0,29.98,South,173,0.0,-999.0,85,-99.99,,,0.00,weatherlink.com 1.10,2013-09-25 12:22:00,
2013-09-25 08:37:00,45.7,42.0,29.98,South,173,0.0,-999.0,85,-99.99,,,0.00,weatherlink.com 1.10,2013-09-25 12:37:00,
2013-09-25 08:52:00,46.8,43.0,29.98,South,173,0.0,-999.0,85,-99.99,,,0.00,weatherlink.com 1.10,2013-09-25 12:52:00,
2013-09-25 09:07:00,48.0,43.0,29.98,SSE,165,0.0,-999.0,84,-99.99,,,0.00,weatherlink.com 1.10,2013-09-25 13:07:00,
2013-09-25 09:22:00,49.9,45.0,29.98,SSE,165,0.0,-999.0,84,-99.99,,,0.00,weatherlink.com 1.10,2013-09-25 13:22:00,
2013-09-25 09:37:00,52.6,48.0,29.98,SSE,165,0.0,-999.0,84,-99.99,,,0.00,weatherlink.com 1.10,2013-09-25 13:37:00,
2013-09-25 09:52:00,54.2,49.0,29.97,South,175,0.0,-999.0,83,-99.99,,,0.00,weatherlink.com 1.10,2013-09-25 13:52:00,
2013-09-25 10:07:00,55.8,50.0,29.97,East,95,0.0,-999.0,81,-99.99,,,0.00,weatherlink.com 1.10,2013-09-25 14:07:00,
2013-09-25 10:22:00,57.6,50.0,29.97,NE,46,0.0,-999.0,75,-99.99,,,0.00,weatherlink.com 1.10,2013-09-25 14:22:00,
2013-09-25 10:38:00,59.1,50.0,29.97,NE,34,0.0,-999.0,73,-99.99,,,0.00,weatherlink.com 1.10,2013-09-25 14:38:00,
2013-09-25 10:53:00,60.3,50.0,29.97,NE,50,0.0,-999.0,69,-99.99,,,0.00,weatherlink.com 1.10,2013-09-25 14:53:00,
2013-09-25 11:08:00,61.4,50.0,29.96,NE,39,0.0,-999.0,66,-99.99,,,0.00,weatherlink.com 1.10,2013-09-25 15:08:00,
2013-09-25 11:23:00,62.5,50.0,29.96,ENE,72,0.0,-999.0,64,-99.99,,,0.00,weatherlink.com 1.10,2013-09-25 15:23:00,
2013-09-25 11:38:00,64.1,51.0,29.95,East,90,0.0,-999.0,62,-99.99,,,0.00,weatherlink.com 1.10,2013-09-25 15:38:00,
2013-09-25 11:53:00,65.2,50.0,29.95,WSW,248,0.0,-999.0,58,-99.99,,,0.00,weatherlink.com 1.10,2013-09-25 15:53:00,
2013-09-25 12:08:00,66.3,49.0,29.95,NW,306,0.0,-999.0,55,-99.99,,,0.00,weatherlink.com 1.10,2013-09-25 16:08:00,
2013-09-25 12:23:00,67.1,48.0,29.95,NW,311,0.0,-999.0,51,-99.99,,,0.00,weatherlink.com 1.10,2013-09-25 16:23:00,
2013-09-25 12:39:00,67.3,48.0,29.94,NW,321,0.0,-999.0,51,-99.99,,,0.00,weatherlink.com 1.10,2013-09-25 16:39:00,
2013-09-25 12:54:00,67.8,48.0,29.94,East,81,0.0,-999.0,49,-99.99,,,0.00,weatherlink.com 1.10,2013-09-25 16:54:00,
2013-09-25 13:09:00,67.7,48.0,29.94,NE,52,0.0,-999.0,49,-99.99,,,0.00,weatherlink.com 1.10,2013-09-25 17:09:00,
2013-09-25 13:24:00,68.5,49.0,29.93,North,9,0.0,-999.0,50,-99.99,,,0.00,weatherlink.com 1.10,2013-09-25 17:24:00,
2013-09-25 13:39:00,67.5,49.0,29.93,NW,316,0.0,-999.0,51,-99.99,,,0.00,weatherlink.com 1.10,2013-09-25 17:39:00,
2013-09-25 13:54:00,67.6,49.0,29.92,NNW,337,0.0,-999.0,51,-99.99,,,0.00,weatherlink.com 1.10,2013-09-25 17:54:00,
2013-09-25 14:09:00,67.4,49.0,29.91,North,351,0.0,-999.0,52,-99.99,,,0.00,weatherlink.com 1.10,2013-09-25 18:09:00,
2013-09-25 14:24:00,67.8,50.0,29.91,NW,325,0.0,-999.0,53,-99.99,,,0.00,weatherlink.com 1.10,2013-09-25 18:24:00,
2013-09-25 14:39:00,67.2,50.0,29.91,ENE,57,0.0,-999.0,54,-99.99,,,0.00,weatherlink.com 1.10,2013-09-25 18:39:00,
2013-09-25 14:54:00,66.8,50.0,29.91,NNW,328,0.0,-999.0,55,-99.99,,,0.00,weatherlink.com 1.10,2013-09-25 18:54:00,
2013-09-25 15:09:00,66.7,49.0,29.91,WSW,252,0.0,-999.0,54,-99.99,,,0.00,weatherlink.com 1.10,2013-09-25 19:09:00,
2013-09-25 15:25:00,66.7,50.0,29.91,NNE,13,0.0,-999.0,55,-99.99,,,0.00,weatherlink.com 1.10,2013-09-25 19:25:00,
2013-09-25 15:40:00,66.6,50.0,29.91,NNW,342,0.0,-999.0,55,-99.99,,,0.00,weatherlink.com 1.10,2013-09-25 19:40:00,
2013-09-25 15:55:00,66.7,52.0,29.90,ENE,63,0.0,-999.0,59,-99.99,,,0.00,weatherlink.com 1.10,2013-09-25 19:55:00,
2013-09-25 16:10:00,66.6,51.0,29.90,ENE,63,0.0,-999.0,58,-99.99,,,0.00,weatherlink.com 1.10,2013-09-25 20:10:00,
2013-09-25 16:25:00,66.4,52.0,29.90,North,355,0.0,-999.0,61,-99.99,,,0.00,weatherlink.com 1.10,2013-09-25 20:25:00,
2013-09-25 16:40:00,66.6,53.0,29.90,North,355,0.0,-999.0,61,-99.99,,,0.00,weatherlink.com 1.10,2013-09-25 20:40:00,
2013-09-25 16:55:00,66.8,52.0,29.90,North,355,0.0,-999.0,59,-99.99,,,0.00,weatherlink.com 1.10,2013-09-25 20:55:00,
2013-09-25 17:10:00,66.7,52.0,29.90,North,355,0.0,-999.0,59,-99.99,,,0.00,weatherlink.com 1.10,2013-09-25 21:10:00,
2013-09-25 17:25:00,66.8,52.0,29.90,North,355,0.0,-999.0,59,-99.99,,,0.00,weatherlink.com 1.10,2013-09-25 21:25:00,
2013-09-25 17:40:00,66.9,52.0,29.90,North,355,0.0,-999.0,60,-99.99,,,0.00,weatherlink.com 1.10,2013-09-25 21:40:00,
2013-09-25 17:55:00,66.7,53.0,29.90,North,355,0.0,-999.0,61,-99.99,,,0.00,weatherlink.com 1.10,2013-09-25 21:55:00,
2013-09-25 18:10:00,66.2,53.0,29.90,North,355,0.0,-999.0,62,-99.99,,,0.00,weatherlink.com 1.10,2013-09-25 22:10:00,
2013-09-25 18:26:00,65.3,54.0,29.90,North,355,0.0,-999.0,66,-99.99,,,0.00,weatherlink.com 1.10,2013-09-25 22:26:00,
2013-09-25 18:41:00,63.7,55.0,29.90,North,355,0.0,-999.0,72,-99.99,,,0.00,weatherlink.com 1.10,2013-09-25 22:41:00,
2013-09-25 18:56:00,61.9,54.0,29.91,North,355,0.0,-999.0,76,-99.99,,,0.00,weatherlink.com 1.10,2013-09-25 22:56:00,
2013-09-25 19:11:00,60.4,54.0,29.91,North,355,0.0,-999.0,79,-99.99,,,0.00,weatherlink.com 1.10,2013-09-25 23:11:00,
2013-09-25 19:26:00,59.3,53.0,29.91,North,355,0.0,-999.0,80,-99.99,,,0.00,weatherlink.com 1.10,2013-09-25 23:26:00,
2013-09-25 19:41:00,58.4,53.0,29.92,North,355,0.0,-999.0,81,-99.99,,,0.00,weatherlink.com 1.10,2013-09-25 23:41:00,
2013-09-25 19:56:00,57.5,52.0,29.92,North,355,0.0,-999.0,82,-99.99,,,0.00,weatherlink.com 1.10,2013-09-25 23:56:00,
2013-09-25 20:26:00,56.0,51.0,29.93,North,355,0.0,-999.0,83,-99.99,,,0.00,weatherlink.com 1.10,2013-09-26 00:26:00,
2013-09-25 20:41:00,55.4,50.0,29.93,North,355,0.0,-999.0,83,-99.99,,,0.00,weatherlink.com 1.10,2013-09-26 00:41:00,
2013-09-25 20:56:00,54.9,50.0,29.93,North,355,0.0,-999.0,83,-99.99,,,0.00,weatherlink.com 1.10,2013-09-26 00:56:00,
2013-09-25 21:11:00,54.3,50.0,29.94,North,355,0.0,-999.0,84,-99.99,,,0.00,weatherlink.com 1.10,2013-09-26 01:11:00,
2013-09-25 21:26:00,53.8,49.0,29.94,North,355,0.0,-999.0,84,-99.99,,,0.00,weatherlink.com 1.10,2013-09-26 01:26:00,
2013-09-25 21:41:00,53.4,49.0,29.95,North,355,0.0,-999.0,84,-99.99,,,0.00,weatherlink.com 1.10,2013-09-26 01:41:00,
2013-09-25 21:56:00,53.1,48.0,29.95,North,355,0.0,-999.0,84,-99.99,,,0.00,weatherlink.com 1.10,2013-09-26 01:56:00,